Location: Niagara
(43.2500°N, 79.0670°W)
Time: 05:36:56
(UTC-04:00)

Tiangong 2 - Pass Details

Date: 10 October 2017
Orbit: 388 x 392 km, 42.8° (Epoch: 16 October)

Event Time Altitude Azimuth Distance (km) Brightness Sun altitude
Exits shadow 05:33:38 27° 156° (SSE) 795 2.7 -20.9°
Maximum altitude 05:33:41 27° 155° (SSE) 795 2.7 -20.9°
Drops below altitude 10° 05:36:27 10° 95° (E) 1,422 5.0 -20.4°
Sets 05:38:43 0° 83° (E) 2,281 6.6 -20.0°
